sat.trackr.live / text

‹ back to catalog

QIANFAN-80

NORAD 63166 · 2025-046H

PAYLOAD ACTIVE UNKNOWN

§ Identity

Operator
Country
PRC
Launch date
2025-03-11
Launch site
WSC
Launch vehicle
Mass (kg)
RCS (m²)

External: N2YO · Heavens-Above · Gunter

§ Orbital elements

Epoch: 2026-09-22T21:53:43.269504Z

Period
106.59 min
Inclination
88.9641°
Eccentricity
0.0014684
Mean motion
13.51030268 rev/d
Perigee alt
1,057.5 km
Apogee alt
1,079.4 km
Semi-major
7,446.6 km
B*
1.1201e-4
RAAN
290.2986°
Arg perigee
38.8525°
Mean anomaly
321.3679°
Rev number
8,590

§ Raw data

QIANFAN-801 63166U 25046H   26265.91230636  .00000085  00000+0  11201-3 0  99902 63166  88.9641 290.2986 0014684  38.8525 321.3679 13.51030268 85902

JSON: /api/v1/satellites/63166 · /tle

For live sub-satellite position, see the globe view (requires WebGL).

§ Visibility from observer

Set your observer location to see the next 7 days of passes ≥ 10°. The values pass through the URL so the page stays shareable.

No JS? Fill the form by hand. The geolocation button needs JavaScript.